Location: Buckland
(65.9785°N, 161.1281°W)
Time: 17:05:48
(UTC+00:00)

Vanguard 2 Rocket - Pass Details

Date: 04 December 2020
Orbit: 554 x 3326 km, 32.9° (Epoch: 14 January)

Event Time Altitude Azimuth Distance (km) Brightness Sun altitude
Rises 16:17:28 0° 192° (SSW) 6,883 11.3 -22.1°
Reaches altitude 10° 16:26:22 10° 170° (S) 6,201 11.3 -21.2°
Maximum altitude 16:33:05 13° 150° (SSE) 6,040 11.6 -20.5°
Drops below altitude 10° 16:39:50 10° 129° (SE) 6,219 12.0 -19.8°
Sets 16:48:42 0° 107° (ESE) 6,926 13.1 -19.0°
